Regional Weather Roundup
Issued by NWS Newport/Morehead, NC

Current Version | Previous Version | Graphics & Text | Print | Product List | Glossary Off
Versions: 1 2 3 4 5 6 7 8 9 10 11 12 13 14 15 16 17 18 19 20 21 22 23 24 25 26 27 28 29 30 31 32 33 34 35 36 37 38 39 40 41 42 43 44 45 46 47 48 49 50

000
ASUS42 KMHX 020113
RWRMHX
WEATHER ROUNDUP FOR EASTERN NORTH CAROLINA
NATIONAL WEATHER SERVICE NEWPORT/MOREHEAD CITY NC
900 PM EDT TUE SEP 01 2015

NOTE: "FAIR" INDICATES FEW OR NO CLOUDS BELOW 12,000 FEET
WITH NO SIGNIFICANT WEATHER AND/OR OBSTRUCTIONS TO VISIBILITY

NCZ015>017-031-032-045>047-102-103-020200-
NORTH COAST

CITY           SKY/WX    TMP DP  RH WIND       PRES   REMARKS
EDENTON        PTCLDY    74  71  88 CALM      30.06R
ELIZABETH CITY PTCLDY    76  73  91 S5        30.05R
KITTY HAWK     CLEAR     75  67  77 CALM      30.04S
MANTEO         CLEAR     76  73  90 CALM      30.05S

$$

NCZ045>047-081-094-103-104-020200-
CENTRAL COAST

CITY           SKY/WX    TMP DP  RH WIND       PRES   REMARKS
FRISCO         MOCLDY    76  72  87 CALM      30.06R
SWANQUARTER      N/A     77 N/A N/A E1        30.03R

$$

NCZ095-097-098-100-101-020200-
SOUTHERN COAST

CITY           SKY/WX    TMP DP  RH WIND       PRES   REMARKS
BEAUFORT       MOCLDY    79  75  87 W5        30.06R
CEDAR ISLAND     N/A     79 N/A N/A S3        30.09S
JACKSONVILLE   CLEAR     77  73  87 SW6       30.06R
PINEY ISLAND   PTCLDY   N/A N/A N/A S3        30.06R
WILMINGTON     CLEAR     78  74  87 CALM      30.07R


$$

NCZ011>013-027>030-043-044-078>080-089-090>093-098-020200-
COASTAL PLAIN

CITY           SKY/WX    TMP DP  RH WIND       PRES   REMARKS
AHOSKIE        PTCLDY    72  71  96 CALM      30.06R
CLINTON        CLEAR     77  74  91 CALM      30.07R
ELIZABETHTOWN  PTCLDY    79  73  81 S3        30.06S
GOLDSBORO      CLEAR     77  72  83 S2        30.05R
GREENVILLE     CLEAR     75  73  94 CALM      30.07S
HAVELOCK       CLEAR     78  73  84 SW7       30.07R
KENANSVILLE      N/A     74  73  95 CALM      30.07S
KINSTON        PTCLDY    73  72  94 SW3       30.07R
NEW BERN       CLEAR     76  73  91 CALM      30.07R
RICHLANDS      CLEAR     75  68  78 SW3       30.07R
ROCKY MOUNT    CLEAR     75  71  87 CALM      30.06R
WASHINGTON     CLEAR     75  72  91 CALM      30.06R
WHITEVILLE     PTCLDY    80  74  82 S3        30.06S

$$

AMZ130-135-150-152-154-156-158-170-250-252-270-ANZ085-086-088-633-658-670-020200-
MARINE OBSERVATIONS

STATION/POSITION TIME  TEMP    WIND        PRES    WAVE   SWELL
                       AIR SEA DIR/SP/G            HT/PER HT/PER
                 (UTC) (F)     (DEG/KT/KT) (MB)    (FT/S) (FT/S)
CHESAPEAKE LIGHT 0100   77     190/  4/  5 1018.4
64 E VA BEACH    0050   78 79   20/  2/  4 1017.2    2/ 7   2/ 7
DUCK             0000   78 79  120/  4/  4 1016.4
2 E DUCK         0011      81                N/A     1/ 9
OREGON INLET     0000   78 81   40/  1/  2 1017.2
13E OREGON INLT  0100      80                N/A     2/10
HATTERAS CG      0000   80 82   60/  1/  2 1017.2
DIAMOND BUOY     0050   80 83  360/  2/  4 1017.9    2/ 9   2/ 9
CAPE LOOKOUT     0100   79     260/  5/  7 1017.7
BEAUFORT LAB     0000   80 80  250/  4/  7 1016.9
30 SE NEW RVR IN 0008   80 82  250/  8/ 10 1018.0
30 SE NEW RVR IN 0025      82                N/A     2/ 7
27 SE WRIGHTSVLE 0000   77 82  250/  8/ 10   N/A
5 SE WRIGHTSVLE  0008   81 82  230/ 10/ 14 1017.8
225 S CAPE HAT   0050   84 85  260/  6/ 10 1018.5    3/ 6   3/ 6
41 SE CHARLESTON 0050   82 83  140/  6/  8 1018.1    2/ 6   2/ 6

$$


USA.gov is the U.S. government's official web portal to all federal, state and local government web resources and services.